NOAA 16 DEB, 41428

Orbit data source: Space-Track

NOAA 16 DEB, 41428 is space debris in SSO originally from a launch on Thu, 21 Sep 2000 UTC launched from the Air Force Western Test Range (AFWTR). Debris objects in space refer to the collection of defunct objects orbiting the Earth. Examples of debris include non-operational satellites, rocket bodies, and fragments generated from explosions, collisions, or faulty payload assembly.

Loading next visibility...
Identifier
41428, 2000-055LH
Orbit
SSO
Country
Flag of USUS
Related business
Manufacturer
Unknown
Mission
Spacecraft
Bus & Motor
Unknown
Mass
Unknown
Launch date (UTC)
2000-09-21 (26 years ago)
Launch vehicle
Unknown
Launch site
Air Force Western Test Range (AFWTR)
Object type
Payload
Rocket body
Debris
Shape & HBR
Unknown shape, 0.1 m
Radar Cross Section
Medium (>0.1 m² and <1 m²)

Expand to show TLE details & history
Last TLE update: 1 day ago

TLE from 1 day ago
0 NOAA 16 DEB
1 41428U 00055LH  26171.27510291  .00003917  00000-0  12998-2 0  9994
2 41428  98.8312 293.6005 0016340 142.2586 217.9750 14.38310166534779
Epoch: 2026-06-20T06:36Z
TLE epoch observation values (Epoch: 2026-06-20T06:36:08.891Z)
Latitude
0.00002°
Longitude
-73.92862°
Altitude
776.231 km
Speed
7.461 km/s
True Right ascension
19h 34m 24s
True Declination
0° 00' 00"
Sunlit
Object was in full shadow at epoch
Visualization orbit readout
Latitude
Unknown
Longitude
Unknown
Altitude
Unknown
Speed
Unknown
Apparent Right ascension
Unknown
Apparent Declination
Unknown
Sunlit
N/A
Visualization observer readout
Local Sidereal Time
17:39:07
Azimuth
Unknown
Elevation
Unknown
Doppler factor
Unknown
Orbital elements
Apogee altitude
772.893 km
Perigee altitude
749.561 km
Semi-major axis
7,139.364 km
Eccentricity
0.00163
Inclination
98.8312°
RAAN
293.6005°
Arg. of periapsis
142.2586°
True anomaly
217.85997°
Mean anomaly
217.975°
Eccentric anomaly
217.91747°
Mean motion
3.59794 °/min
Orbital period
100.06 mins
BSTAR
0.0012998
Loading maneuver chart data...
Computing Atmospheric mass density...
Loading historical data...
Loading historical data...
Loading historical data...
Loading historical data...
Loading historical data...
Loading historical data...
Loading historical data...

Documentation

Showing up to 5 results
|